Location: Ilan Ramon youth physics center
(31.2629°N, 34.8050°E)
Time: 09:15:56
(UTC+02:00)

ISS - Visible Passes

Search period start: 17 February 2020 00:00
Search period end: 27 February 2020 00:00
Orbit: 416 x 423 km, 51.6° (Epoch: 17 February)

Date Brightness Start Highest point End Pass type
(mag) Time Alt. Az. Time Alt. Az. Time Alt. Az.
19 Feb -1.1 05:17:41 10° S 05:20:17 21° SE 05:22:54 10° ENE visible
20 Feb -0.5 04:31:51 10° SE 04:32:52 11° SE 04:33:52 10° ESE visible
21 Feb -3.8 05:18:32 11° SW 05:21:42 86° SE 05:25:04 10° NE visible
22 Feb -2.7 04:33:54 40° SE 04:34:09 41° SE 04:37:20 10° ENE visible
23 Feb -0.3 03:48:59 11° E 03:48:59 11° E 03:49:15 10° ENE visible
23 Feb -2.5 05:21:59 20° WNW 05:23:19 26° NW 05:26:13 10° NNE visible
24 Feb -2.4 04:36:49 31° NNE 04:36:49 31° NNE 04:38:52 10° NNE visible
25 Feb -1.4 05:24:32 10° NW 05:25:09 10° NNW 05:25:48 10° NNW visible
26 Feb -1.2 04:38:58 12° N 04:38:58 12° N 04:39:29 10° N visible
